Volver al catálogo

STARLINK-5700

ActivoComunicacionesVLEO
NORAD 55607·PAYLOAD·🇺🇸 United States

Lanzado Feb 12, 2023 desde Cape Canaveral Space Force Station

Loading…

Próximos Pases (próximas 24 horas)

TLE

ActualizadoSource: CelesTrak SupGP

Época: Sep 14, 2026, 21:15 UTC

1 55607C 23020AQ  26257.88590278 -.00018506  00000+0 -67012-3 0  2576
2 55607  43.0045   5.8735 0002166 282.8616  54.9687 15.27594494    17

Sigue STARLINK-5700 en tiempo real con AllMySat

Download on the App Store